Regional Weather Roundup
Issued by NWS

Home | Current Version | Previous Version | Text Only | Print | Product List | Glossary On
Versions: 1 2 3 4 5 6 7 8 9 10 11 12 13 14 15 16 17 18 19 20 21 22 23 24 25 26 27 28 29 30 31 32 33 34 35 36 37 38 39 40 41 42 43 44 45 46 47 48 49 50
000
ASUS43 KLOT 250908
RWRIL

ILLINOIS REGIONAL WEATHER ROUNDUP
NATIONAL WEATHER SERVICE CHICAGO/ROMEOVILLE IL
400 AM CDT TUE APR 25 2017

NOTE: "FAIR" INDICATES FEW OR NO CLOUDS BELOW 12,000 FEET WITH NO
SIGNIFICANT WEATHER AND/OR OBSTRUCTIONS TO VISIBILITY.

* THESE STATIONS ARE NOT UNDER NWS QUALITY CONTROL. THEY ALSO MAY NOT
  REPORT WEATHER SUCH AS PRECIPITATION OR FOG.

ILZ001-002-007-009-015-016-024-251000-
NORTHWEST ILLINOIS

CITY           SKY/WX    TMP DP  RH WIND       PRES   REMARKS
MOLINE         CLOUDY    55  33  43 S13       29.62F
STERLING*      MOCLDY    53  38  56 SE6       29.67F
SAVANNA*       CLOUDY    53  35  48 S6        29.65S
$$

ILZ003-004-008-010-011-017-018-251000-
NORTH CENTRAL ILLINOIS

CITY           SKY/WX    TMP DP  RH WIND       PRES   REMARKS
ROCKFORD       CLOUDY    55  39  54 SE9       29.69F
FREEPORT*      PTCLDY    52  38  60 SE7       29.68F
ROCHELLE*      CLOUDY    50  40  67 SE7       29.69F
DE KALB*       PTCLDY    53  41  63 SE10      29.71F
PERU*          PTCLDY    55  38  53 SE9       29.69F
$$

ILZ005-006-012>014-019>023-251000-
NORTHEAST ILLINOIS

CITY           SKY/WX    TMP DP  RH WIND       PRES   REMARKS
CHICAGO-OHARE  CLEAR     54  44  69 SE7       29.71F
CHICAGO-MIDWAY PTCLDY    59  46  62 S10       29.72F
AURORA         PTCLDY    51  43  74 SE8       29.71F
LANSING*       PTCLDY    55  47  77 SE6       29.74S
JOLIET*        CLEAR     55  45  69 SE6       29.72S
WAUKEGAN       CLEAR     51  41  68 SE9       29.72F
DUPAGE AIRPORT CLEAR     54  44  69 SE6       29.71S
KANKAKEE*      PTCLDY    53  45  75 CALM      29.74S
WHEELING       CLEAR     51  41  68 CALM      29.73F
MORRIS*        CLEAR     55  43  64 CALM      29.70F
ROMEOVILLE*    CLEAR     56  49  77 SE14      29.72S
NORTHERLY ISL    N/A     52  46  80 NE5         N/A
$$

LMZ740>746-251000-
SOUTHERN LAKE MICHIGAN

STATION/POSITION SKY/WX   TEMP    WIND        PRES    VSBY  WAVE
                          AIR SEA DIR/SP/G                  HT/PER
                          (F)     (DEG/KT/KT) (MB)    (MI)  (FT/S)
SOUTHERN BUOY              46 41  100/ 10/ 12 1008.2          1
HARRISON CRIB              52     150/  6/  7   N/A
BURNHAM HARBOR             52      CALM  /  4   N/A
CALUMET HARBOR             59     150/  7/ 11 1006.3F
BURNS HARBOR               58     140/  9/ 17 1008.1R
MICHIGAN CITY              57     120/ 11/ 13   N/A
ST. JOSEPH                 54 50  140/ 10/ 14 1008.3          1/ 2
$$

ILZ025>027-034>036-040-047-049-050-058-095>099-251000-
WEST-CENTRAL ILLINOIS

CITY           SKY/WX    TMP DP  RH WIND       PRES   REMARKS
QUINCY         PTCLDY    57  41  55 S8        29.63F
GALESBURG*     CLOUDY    55  35  47 SE7       29.64S
MACOMB*        PTCLDY    53  37  55 S8        29.67S
JACKSONVILLE*  CLOUDY    58  41  52 S9        29.67F
PITTSFIELD*    MOCLDY    56  44  64 S8        29.67F
$$

ILZ028>032-037-038-041>044-048-051>054-059>061-251000-
CENTRAL ILLINOIS

CITY           SKY/WX    TMP DP  RH WIND       PRES   REMARKS
PONTIAC        CLEAR     47  40  77 SE5       29.72F
BLOOMINGTON    CLEAR     53  37  54 SE8       29.71F
DECATUR        PTCLDY    48  36  63 CALM      29.71S
PEORIA         CLEAR     54  35  48 S5        29.68F
LACON*         PTCLDY    49  37  61 SE5       29.67F
LINCOLN*       CLEAR     48  37  64 CALM      29.69F
SPRINGFIELD    CLOUDY    53  37  54 S7        29.69F
TAYLORVILLE    CLEAR     52  39  60 S7        29.71S
$$

ILZ033-039-045-046-055>057-062-063-251000-
EAST-CENTRAL ILLINOIS

CITY           SKY/WX    TMP DP  RH WIND       PRES   REMARKS
CHAMPAIGN      CLEAR     47  39  74 SE7       29.73R
RANTOUL*       CLEAR     54  45  71 S3        29.73R
MATTOON        CLOUDY    52  44  74 S5        29.72R
PARIS*         CLEAR     55  50  85 SE5       29.74S
$$

ILZ079-100>102-251000-
SOUTHWEST ILLINOIS

CITY           SKY/WX    TMP DP  RH WIND       PRES   REMARKS
ALTON          CLOUDY    51  41  70 SE3       29.70F
BELLEVILLE     CLEAR     49  47  93 CALM      29.69F
CAHOKIA*       CLEAR     49  42  77 CALM      29.69F
SPARTA*        CLEAR     54  47  77 SE3       29.73R
$$

ILZ064>066-069>071-074>076-080>082-084>086-088>090-092>094-251000-
SOUTH-CENTRAL ILLINOIS

CITY           SKY/WX    TMP DP  RH WIND       PRES   REMARKS
CARBONDALE     CLEAR     51  51 100 CALM      29.72S
CAIRO*         CLEAR     56  55  95 S7        29.74S
EFFINGHAM*     CLEAR     47  45  93 CALM      29.74R
MARION         CLEAR     54  54 100 S3        29.74R
MT. VERNON     CLEAR     45  45 100 CALM      29.73R
CENTRALIA*     CLEAR     54  48  80 S6        29.71S
SALEM*         CLEAR     57  47  71 S3        29.71S
METROPOLIS*    CLEAR     56  54  94 S3        29.75R
$$

ILZ067-068-072-073-078-083-087-091-251000-
SOUTHEAST ILLINOIS

CITY           SKY/WX    TMP DP  RH WIND       PRES   REMARKS
LAWRENCEVILLE  CLEAR     55  51  86 SE5       29.74F
FLORA*         CLEAR     48  46  91 CALM      29.73R
FAIRFIELD*     CLEAR     51  49  90 CALM      29.72S
HARRISBURG*    CLEAR     51  49  96 CALM      29.73F
ROBINSON*      CLEAR     52  49  90 S3        29.75S
CARMI*         CLEAR     51  50  96 SE3       29.74R
$$

ABBREVIATIONS USED IN REMARKS
   TC - TEMPERATURE IN CELSIUS
  WCI - WIND CHILL INDEX
   HX - HEAT INDEX
  VSB - VISIBILITY
$$




USA.gov is the U.S. government's official web portal to all federal, state and local government web resources and services.